N4DWK Weather Reports


Display with metric or nautical units.
time (UTC)temp
F
wind
direction
speed
MPH
gust
MPH
rain 1hr
in
rain 24hr
in
rain mn
in
humidity
%
barometer
mb
20260831132006 80 199 1.0 3.0 0.00 0.00 0.00 83 1019.2
20260831131506 80 218 2.0 5.0 0.00 0.00 0.00 84 1019.2
20260831130506 79 5 2.0 5.0 0.00 0.00 0.00 86 1019.2
20260831130007 79 339 2.0 3.0 0.00 0.00 0.00 85 1019.3
20260831125505 78 5 0.0 5.0 0.00 0.00 0.00 86 1019.3
20260831125006 78 5 0.0 6.0 0.00 0.00 0.00 87 1019.4
20260831124505 78 10 3.0 6.0 0.00 0.00 0.00 89 1019.3
20260831124005 77 350 1.0 3.0 0.00 0.00 0.00 89 1019.4
20260831123505 76 258 0.0 3.0 0.00 0.00 0.00 89 1019.4
20260831123005 76 222 1.0 3.0 0.00 0.00 0.00 90 1019.3
20260831122505 76 220 1.0 3.0 0.00 0.00 0.00 90 1019.3
20260831122006 75 208 1.0 3.0 0.00 0.00 0.00 90 1019.2
20260831121506 75 223 1.0 3.0 0.00 0.00 0.00 90 1019.2
20260831121006 75 239 2.0 3.0 0.00 0.00 0.00 91 1019.1
20260831120505 74 228 0.0 3.0 0.00 0.00 0.00 91 1019.1
20260831120006 74 228 1.0 3.0 0.00 0.00 0.00 91 1019.1
20260831115506 74 195 0.0 3.0 0.00 0.00 0.00 91 1019.0
20260831115006 74 194 0.0 3.0 0.00 0.00 0.00 92 1019.0
20260831114505 74 194 1.0 3.0 0.00 0.00 0.00 92 1019.0
20260831114005 74 194 0.0 3.0 0.00 0.00 0.00 92 1019.0
20260831113505 74 194 0.0 3.0 0.00 0.00 0.00 92 1019.0
20260831113006 74 194 0.0 0.0 0.00 0.00 0.00 92 1019.0
20260831112505 73 194 0.0 0.0 0.00 0.00 0.00 92 1018.8
20260831112005 73 194 0.0 0.0 0.00 0.00 0.00 92 1018.7
20260831111505 73 194 0.0 0.0 0.00 0.00 0.00 92 1018.7
20260831111006 73 194 0.0 0.0 0.00 0.00 0.00 92 1018.7
20260831110505 73 194 0.0 0.0 0.00 0.00 0.00 91 1018.7
20260831110005 73 194 0.0 0.0 0.00 0.00 0.00 91 1018.7
20260831105505 74 194 0.0 0.0 0.00 0.00 0.00 91 1018.7
20260831105006 74 194 0.0 0.0 0.00 0.00 0.00 91 1018.7
20260831104506 74 194 0.0 0.0 0.00 0.00 0.00 91 1018.7
20260831104006 74 194 0.0 0.0 0.00 0.00 0.00 90 1018.7
20260831103505 74 194 0.0 0.0 0.00 0.00 0.00 90 1018.6
20260831103006 74 194 0.0 0.0 0.00 0.00 0.00 90 1018.6
20260831102506 74 194 0.0 0.0 0.00 0.00 0.00 90 1018.6
20260831102005 74 194 0.0 0.0 0.00 0.00 0.00 90 1018.5
20260831101505 74 194 0.0 0.0 0.00 0.00 0.00 90 1018.4
20260831101006 74 194 0.0 0.0 0.00 0.00 0.00 89 1018.3
20260831100505 75 194 0.0 0.0 0.00 0.00 0.00 89 1018.3
20260831100006 75 194 0.0 0.0 0.00 0.00 0.00 89 1018.3
20260831095506 75 194 0.0 0.0 0.00 0.00 0.00 89 1018.3
20260831095006 75 194 0.0 0.0 0.00 0.00 0.00 89 1018.3
20260831094505 75 194 0.0 0.0 0.00 0.00 0.00 89 1018.3
20260831094005 75 194 0.0 0.0 0.00 0.00 0.00 89 1018.3
20260831093505 75 194 0.0 0.0 0.00 0.00 0.00 88 1018.3
20260831093006 75 194 0.0 0.0 0.00 0.00 0.00 88 1018.3
20260831092506 76 194 0.0 0.0 0.00 0.00 0.00 88 1018.3
20260831092006 76 194 0.0 0.0 0.00 0.00 0.00 88 1018.3
20260831091505 76 194 0.0 0.0 0.00 0.00 0.00 88 1018.3
20260831091005 76 194 0.0 0.0 0.00 0.00 0.00 88 1018.3
20260831090505 76 194 0.0 0.0 0.00 0.00 0.00 88 1018.3
20260831090006 76 194 0.0 0.0 0.00 0.00 0.00 88 1018.3
20260831085505 76 194 0.0 0.0 0.00 0.00 0.00 88 1018.2
20260831085006 76 194 0.0 0.0 0.00 0.00 0.00 88 1018.2
20260831084505 76 194 0.0 0.0 0.00 0.00 0.00 88 1018.2
20260831084005 76 194 0.0 0.0 0.00 0.00 0.00 88 1018.2
20260831083505 76 194 0.0 0.0 0.00 0.00 0.00 88 1018.2
20260831083006 76 194 0.0 0.0 0.00 0.00 0.00 87 1018.2
20260831082505 76 194 0.0 0.0 0.00 0.00 0.00 87 1018.2
20260831082005 76 194 0.0 0.0 0.00 0.00 0.00 87 1018.2
20260831081506 76 194 0.0 2.0 0.00 0.00 0.00 87 1018.2
20260831081005 76 194 0.0 2.0 0.00 0.00 0.00 87 1018.3
20260831080505 76 194 0.0 3.0 0.00 0.00 0.00 87 1018.2
20260831080005 76 194 1.0 3.0 0.00 0.00 0.00 87 1018.2
20260831075505 76 194 0.0 0.0 0.00 0.00 0.00 87 1018.2
20260831075006 76 194 0.0 0.0 0.00 0.00 0.00 87 1018.2
20260831074505 76 194 0.0 0.0 0.00 0.00 0.00 87 1018.2
20260831074006 76 194 0.0 2.0 0.00 0.00 0.00 87 1018.2
20260831073505 76 194 1.0 2.0 0.00 0.00 0.00 87 1018.3
20260831073005 76 194 0.0 0.0 0.00 0.00 0.00 87 1018.3
20260831072505 76 194 0.0 0.0 0.00 0.00 0.00 87 1018.3
20260831072006 76 194 0.0 0.0 0.00 0.00 0.00 87 1018.3
20260831071505 76 194 0.0 0.0 0.00 0.00 0.00 86 1018.3
20260831071006 76 194 0.0 2.0 0.00 0.00 0.00 86 1018.3
20260831070505 76 194 0.0 2.0 0.00 0.00 0.00 86 1018.4
20260831070006 76 194 0.0 2.0 0.00 0.00 0.00 86 1018.4
20260831065505 76 194 0.0 0.0 0.00 0.00 0.00 86 1018.3
20260831065005 76 194 0.0 0.0 0.00 0.00 0.00 86 1018.4
20260831064506 76 194 0.0 0.0 0.00 0.00 0.00 86 1018.4
20260831064005 76 194 0.0 0.0 0.00 0.00 0.00 87 1018.5
20260831063505 76 194 0.0 0.0 0.00 0.00 0.00 87 1018.6
20260831063005 76 194 0.0 0.0 0.00 0.00 0.00 87 1018.5
20260831062505 76 194 0.0 0.0 0.00 0.00 0.00 87 1018.5
20260831062006 76 194 0.0 0.0 0.00 0.00 0.00 87 1018.5
20260831061505 76 194 0.0 0.0 0.00 0.00 0.00 87 1018.5
20260831061005 76 194 0.0 0.0 0.00 0.00 0.00 86 1018.6
20260831060505 76 194 0.0 0.0 0.00 0.00 0.00 87 1018.7
20260831060005 76 194 0.0 0.0 0.00 0.00 0.00 86 1018.7
20260831055506 76 194 0.0 0.0 0.00 0.00 0.00 86 1018.7
20260831055005 76 194 0.0 0.0 0.00 0.00 0.00 86 1018.8
20260831054505 77 194 0.0 0.0 0.00 0.00 0.00 86 1018.8
20260831054005 77 194 0.0 0.0 0.00 0.00 0.00 85 1018.8
20260831053505 77 194 0.0 0.0 0.00 0.00 0.00 85 1018.9
20260831053006 77 194 0.0 0.0 0.00 0.00 0.00 85 1018.9
20260831052506 77 194 0.0 0.0 0.00 0.00 0.00 85 1019.0
20260831052006 78 194 0.0 0.0 0.00 0.00 0.00 84 1019.0
20260831051505 78 194 0.0 0.0 0.00 0.00 0.00 84 1019.1
20260831051006 78 194 0.0 0.0 0.00 0.00 0.00 84 1019.1
20260831050505 78 194 0.0 0.0 0.00 0.00 0.00 84 1019.0
20260831050006 78 194 0.0 0.0 0.00 0.00 0.00 84 1019.1
20260831045504 78 194 0.0 0.0 0.00 0.00 0.00 83 1019.1
20260831045005 78 194 0.0 0.0 0.00 0.00 0.00 83 1019.0
20260831044505 78 194 0.0 0.0 0.00 0.00 0.00 83 1019.1
20260831044005 78 194 0.0 0.0 0.00 0.00 0.00 83 1019.1
20260831043506 78 194 0.0 0.0 0.00 0.00 0.00 83 1019.1
20260831043005 79 194 0.0 0.0 0.00 0.00 0.00 83 1019.1
20260831042505 79 194 0.0 2.0 0.00 0.00 0.00 82 1019.1
20260831042005 79 194 0.0 3.0 0.00 0.00 0.00 82 1019.1
20260831041505 79 194 1.0 3.0 0.00 0.00 0.00 82 1019.1
20260831041005 79 184 0.0 0.0 0.00 0.00 0.00 82 1019.1
20260831040505 79 184 0.0 0.0 0.00 0.00 0.00 82 1019.1
20260831040005 79 184 0.0 0.0 0.00 0.00 0.00 82 1019.1
20260831035505 79 184 0.0 0.0 0.00 0.00 0.00 82 1019.1
20260831035005 79 184 0.0 0.0 0.00 0.00 0.00 82 1019.1
20260831034505 79 184 0.0 1.0 0.00 0.00 0.00 82 1019.1
20260831034006 79 184 0.0 1.0 0.00 0.00 0.00 82 1019.3
20260831033504 79 184 0.0 0.0 0.00 0.00 0.00 82 1019.3
20260831033006 79 184 0.0 2.0 0.00 0.00 0.00 82 1019.3
20260831032504 79 184 0.0 2.0 0.00 0.00 0.00 82 1019.3
20260831032005 79 184 1.0 2.0 0.00 0.00 0.00 81 1019.3
20260831031505 79 184 0.0 0.0 0.00 0.00 0.00 81 1019.3
20260831031005 79 184 0.0 0.0 0.00 0.00 0.00 81 1019.4
20260831030505 79 184 0.0 0.0 0.00 0.00 0.00 81 1019.3
20260831030007 79 184 0.0 0.0 0.00 0.00 0.00 81 1019.4
20260831025504 79 184 0.0 0.0 0.00 0.00 0.00 81 1019.4
20260831025005 79 184 0.0 0.0 0.00 0.00 0.00 81 1019.4
20260831024506 79 184 0.0 3.0 0.00 0.00 0.00 81 1019.4
20260831024005 79 184 0.0 3.0 0.00 0.00 0.00 81 1019.3
20260831023505 79 176 0.0 1.0 0.00 0.00 0.00 82 1019.4
20260831023005 79 176 0.0 1.0 0.00 0.00 0.00 82 1019.3
20260831022505 79 176 0.0 0.0 0.00 0.00 0.00 82 1019.4
20260831022005 79 176 0.0 0.0 0.00 0.00 0.00 82 1019.4
20260831021505 79 176 0.0 2.0 0.00 0.00 0.00 82 1019.5
20260831021004 79 176 0.0 2.0 0.00 0.00 0.00 82 1019.4
20260831020506 79 229 0.0 0.0 0.00 0.00 0.00 82 1019.4
20260831020005 79 229 0.0 0.0 0.00 0.00 0.00 82 1019.5
20260831015505 79 229 0.0 0.0 0.00 0.00 0.00 82 1019.5
20260831015006 79 229 0.0 0.0 0.00 0.00 0.00 82 1019.4
20260831014506 79 229 0.0 0.0 0.00 0.00 0.00 82 1019.3
20260831014005 79 229 0.0 0.0 0.00 0.00 0.00 82 1019.3
20260831013505 79 229 0.0 0.0 0.00 0.00 0.00 81 1019.4
20260831013005 79 229 0.0 0.0 0.00 0.00 0.00 81 1019.4
20260831012505 80 229 0.0 0.0 0.00 0.00 0.00 81 1019.4
20260831012005 80 229 0.0 0.0 0.00 0.00 0.00 81 1019.5
20260831011505 80 229 0.0 0.0 0.00 0.00 0.00 80 1019.5
20260831011005 80 229 0.0 0.0 0.00 0.00 0.00 80 1019.5
20260831010505 80 229 0.0 0.0 0.00 0.00 0.00 80 1019.4
20260831010005 80 229 0.0 0.0 0.00 0.00 0.00 79 1019.3
20260831005505 80 229 0.0 0.0 0.00 0.00 0.00 79 1019.2
20260831005005 80 229 0.0 0.0 0.00 0.00 0.00 78 1019.1
20260831004505 80 229 0.0 0.0 0.00 0.00 0.00 78 1019.0
20260831004005 81 229 0.0 0.0 0.00 0.00 0.00 78 1018.8
20260831003505 81 229 0.0 0.0 0.00 0.00 0.00 77 1018.8
20260831003005 81 229 0.0 0.0 0.00 0.00 0.00 77 1018.8
20260831002505 81 229 0.0 0.0 0.00 0.00 0.00 76 1018.7
20260831002005 82 229 0.0 0.0 0.00 0.00 0.00 76 1018.6
20260831001504 82 229 0.0 0.0 0.00 0.00 0.00 75 1018.6
20260831001005 83 229 0.0 0.0 0.00 0.00 0.00 74 1018.5
20260831000505 83 229 0.0 0.0 0.00 0.00 0.00 73 1018.5
20260831000006 84 229 0.0 0.0 0.00 0.00 0.00 72 1018.5
20260830235505 84 229 0.0 0.0 0.00 0.00 0.00 71 1018.6
20260830235005 85 229 0.0 0.0 0.00 0.00 0.00 71 1018.5
20260830234504 85 229 0.0 0.0 0.00 0.00 0.00 69 1018.6
20260830234004 85 229 0.0 0.0 0.00 0.00 0.00 69 1018.6
20260830233504 85 229 0.0 0.0 0.00 0.00 0.00 68 1018.7
20260830233005 86 229 0.0 0.0 0.00 0.00 0.00 68 1018.7
20260830232504 86 229 0.0 0.0 0.00 0.00 0.00 69 1018.8
20260830232005 86 229 0.0 2.0 0.00 0.00 0.00 68 1018.8
20260830231504 86 229 0.0 3.0 0.00 0.00 0.00 68 1018.8
20260830231005 86 229 0.0 3.0 0.00 0.00 0.00 67 1018.8
20260830230505 87 229 1.0 2.0 0.00 0.00 0.00 67 1018.8
20260830230005 87 229 0.0 5.0 0.00 0.00 0.00 66 1018.7
20260830225504 87 229 2.0 5.0 0.00 0.00 0.00 66 1018.6
20260830225004 87 217 2.0 5.0 0.00 0.00 0.00 66 1018.7
20260830224504 87 215 3.0 5.0 0.00 0.00 0.00 65 1018.7
20260830224004 88 212 3.0 5.0 0.00 0.00 0.00 65 1018.6
20260830223504 88 225 2.0 3.0 0.00 0.00 0.00 64 1018.7
20260830223004 88 226 1.0 3.0 0.00 0.00 0.00 65 1018.7
20260830222504 89 226 3.0 6.0 0.00 0.00 0.00 64 1018.7
20260830222004 89 234 2.0 6.0 0.00 0.00 0.00 63 1018.6
20260830221505 89 235 3.0 6.0 0.00 0.00 0.00 62 1018.6
20260830221005 90 212 3.0 5.0 0.00 0.00 0.00 61 1018.6
20260830220504 90 220 2.0 6.0 0.00 0.00 0.00 62 1018.7
20260830220004 90 224 3.0 6.0 0.00 0.00 0.00 61 1018.7
20260830215504 91 227 3.0 6.0 0.00 0.00 0.00 60 1018.6
20260830215004 91 220 2.0 3.0 0.00 0.00 0.00 60 1018.6
20260830214504 91 220 1.0 6.0 0.00 0.00 0.00 61 1018.6
20260830214004 90 221 2.0 6.0 0.00 0.00 0.00 61 1018.6
20260830213505 91 229 3.0 6.0 0.00 0.00 0.00 59 1018.5
20260830213005 91 225 2.0 8.0 0.00 0.00 0.00 61 1018.5
20260830212504 91 213 2.0 8.0 0.00 0.00 0.00 60 1018.5
20260830212005 91 228 2.0 6.0 0.00 0.00 0.00 59 1018.4
20260830211504 91 235 4.0 6.0 0.00 0.00 0.00 58 1018.4
20260830211004 91 228 3.0 7.0 0.00 0.00 0.00 59 1018.4
20260830210504 92 227 2.0 7.0 0.00 0.00 0.00 59 1018.4
20260830210004 92 220 3.0 7.0 0.00 0.00 0.00 59 1018.4
20260830205505 92 119 1.0 3.0 0.00 0.00 0.00 62 1018.5
20260830205005 92 180 1.0 3.0 0.00 0.00 0.00 62 1018.6
20260830204504 91 216 2.0 6.0 0.00 0.00 0.00 60 1018.6
20260830204005 91 254 2.0 6.0 0.00 0.00 0.00 61 1018.7
20260830203504 92 225 3.0 5.0 0.00 0.00 0.00 60 1018.7
20260830203004 92 221 1.0 6.0 0.00 0.00 0.00 59 1018.7
20260830202504 92 222 1.0 6.0 0.00 0.00 0.00 61 1018.8
20260830202005 92 238 1.0 6.0 0.00 0.00 0.00 61 1018.9
20260830201505 91 281 1.0 5.0 0.00 0.00 0.00 61 1018.9
20260830201004 91 285 1.0 5.0 0.00 0.00 0.00 63 1018.9
20260830200504 92 327 2.0 5.0 0.00 0.00 0.00 64 1018.9
20260830200005 92 221 1.0 3.0 0.00 0.00 0.00 61 1019.0
20260830195505 92 240 2.0 3.0 0.00 0.00 0.00 61 1019.1
20260830195004 91 223 1.0 5.0 0.00 0.00 0.00 64 1019.2
20260830194504 90 292 2.0 6.0 0.00 0.00 0.00 64 1019.2
20260830194005 90 219 3.0 7.0 0.00 0.00 0.00 65 1019.4
20260830193504 90 225 3.0 7.0 0.00 0.00 0.00 64 1019.5
20260830193005 90 218 3.0 7.0 0.00 0.00 0.00 63 1019.7
20260830192504 90 27 0.0 5.0 0.00 0.00 0.00 67 1019.8
20260830192004 90 29 2.0 5.0 0.00 0.00 0.00 64 1019.8
20260830191504 90 225 2.0 5.0 0.00 0.00 0.00 64 1020.0
20260830191005 90 185 1.0 7.0 0.00 0.00 0.00 64 1019.9
20260830190504 90 230 2.0 7.0 0.00 0.00 0.00 63 1020.0
20260830190005 90 327 2.0 7.0 0.00 0.00 0.00 66 1020.1
20260830185504 89 304 1.0 5.0 0.00 0.00 0.00 67 1020.1
20260830185005 89 220 2.0 5.0 0.00 0.00 0.00 66 1020.2
20260830184505 89 19 2.0 3.0 0.00 0.00 0.00 67 1020.3
20260830184005 89 324 1.0 5.0 0.00 0.00 0.00 66 1020.3
20260830183509 89 301 1.0 5.0 0.00 0.00 0.00 65 1020.4
20260830183006 90 188 1.0 6.0 0.00 0.00 0.00 65 1020.5
20260830182514 89 302 1.0 9.0 0.00 0.00 0.00 65 1020.6
20260830182005 89 218 3.0 9.0 0.00 0.00 0.00 66 1020.7
20260830181504 89 227 1.0 3.0 0.00 0.00 0.00 68 1020.8
20260830181004 89 222 1.0 6.0 0.00 0.00 0.00 68 1020.9
20260830180504 87 38 1.0 7.0 0.00 0.00 0.00 69 1021.0
20260830180004 88 233 4.0 7.0 0.00 0.00 0.00 67 1021.0
20260830175504 88 215 2.0 5.0 0.00 0.00 0.00 68 1021.1
20260830175004 87 219 1.0 5.0 0.00 0.00 0.00 70 1021.2
20260830174504 86 241 3.0 5.0 0.00 0.00 0.00 70 1021.2
20260830174006 86 355 2.0 5.0 0.00 0.00 0.00 71 1021.2
20260830173505 87 231 2.0 5.0 0.00 0.00 0.00 69 1021.3
20260830173005 87 322 0.0 8.0 0.00 0.00 0.00 70 1021.3
20260830172504 87 221 3.0 8.0 0.00 0.00 0.00 69 1021.4
20260830172005 86 174 1.0 5.0 0.00 0.00 0.00 73 1021.5
20260830171512 85 240 1.0 5.0 0.00 0.00 0.00 73 1021.5
20260830171011 85 217 2.0 6.0 0.00 0.00 0.00 70 1021.5
20260830170511 85 251 2.0 6.0 0.00 0.00 0.00 74 1021.5
20260830170011 85 218 2.0 9.0 0.00 0.00 0.00 73 1021.6
20260830165512 85 232 3.0 9.0 0.00 0.00 0.00 73 1021.7
20260830165011 84 348 1.0 3.0 0.00 0.00 0.00 74 1021.6
20260830164511 84 305 1.0 6.0 0.00 0.00 0.00 74 1021.7
20260830164011 84 299 2.0 6.0 0.00 0.00 0.00 75 1021.8
20260830163511 83 10 1.0 3.0 0.00 0.00 0.00 76 1021.8
20260830163012 82 223 2.0 3.0 0.00 0.00 0.00 76 1021.9
20260830162511 82 221 1.0 5.0 0.00 0.00 0.00 77 1021.9
20260830162011 82 209 2.0 5.0 0.00 0.00 0.00 76 1021.9
20260830161511 82 315 2.0 5.0 0.00 0.00 0.00 77 1021.9
20260830161012 82 213 0.0 6.0 0.00 0.00 0.00 76 1022.0
20260830160510 82 218 3.0 6.0 0.00 0.00 0.00 76 1022.1
20260830160010 81 224 2.0 5.0 0.00 0.00 0.00 77 1022.2
20260830155510 81 218 1.0 6.0 0.00 0.00 0.00 77 1022.3
20260830155010 81 244 2.0 6.0 0.00 0.00 0.00 78 1022.3
20260830154510 81 222 1.0 6.0 0.00 0.00 0.00 78 1022.3
20260830154011 82 230 3.0 6.0 0.00 0.00 0.00 77 1022.3
20260830153511 82 191 1.0 6.0 0.00 0.00 0.00 77 1022.3
20260830153011 82 119 2.0 5.0 0.00 0.00 0.00 79 1022.4
20260830152511 81 202 2.0 7.0 0.00 0.00 0.00 79 1022.4
20260830152011 81 219 2.0 7.0 0.00 0.00 0.00 80 1022.3
20260830151510 80 235 4.0 7.0 0.00 0.00 0.00 80 1022.3
20260830151011 80 224 3.0 6.0 0.00 0.00 0.00 81 1022.3
20260830150512 80 190 2.0 6.0 0.00 0.00 0.00 82 1022.3
20260830150011 79 231 3.0 6.0 0.00 0.00 0.00 83 1022.4
20260830145511 79 254 3.0 6.0 0.00 0.00 0.00 83 1022.4
20260830145010 79 117 0.0 3.0 0.00 0.00 0.00 84 1022.4
20260830144511 79 116 0.0 5.0 0.00 0.00 0.00 84 1022.4
20260830144010 78 227 2.0 6.0 0.00 0.00 0.00 82 1022.5
20260830143511 78 233 3.0 6.0 0.00 0.00 0.00 85 1022.6
20260830143011 78 213 1.0 3.0 0.00 0.00 0.00 86 1022.6
20260830142510 78 238 2.0 3.0 0.00 0.00 0.00 88 1022.5
20260830142012 77 223 2.0 3.0 0.00 0.00 0.00 88 1022.6
20260830141511 77 230 3.0 6.0 0.00 0.00 0.00 89 1022.6
20260830141011 77 233 2.0 6.0 0.00 0.00 0.00 90 1022.5
20260830140510 76 221 2.0 5.0 0.00 0.00 0.00 91 1022.6
20260830140011 76 221 2.0 6.0 0.00 0.00 0.00 91 1022.7
20260830135511 76 238 3.0 6.0 0.00 0.00 0.00 92 1022.6
20260830135011 76 204 3.0 6.0 0.00 0.00 0.00 93 1022.8
20260830134510 75 225 3.0 6.0 0.00 0.00 0.00 94 1022.9
20260830134011 75 236 0.0 3.0 0.00 0.00 0.00 95 1022.9
20260830133511 75 124 1.0 3.0 0.00 0.00 0.00 95 1023.0
20260830133011 75 118 1.0 3.0 0.00 0.00 0.00 95 1023.1
20260830132510 75 127 1.0 3.0 0.00 0.00 0.00 95 1023.2